Weather History for Bangor, ME

Change the Weather History Date:

Wednesday, April 3, 2013

  Actual Average Record
Temperature  
Mean Temperature 30 °F 37 °F  
Max Temperature 38 °F 47 °F 70 °F (2010)
Min Temperature 22 °F 28 °F 11 °F (1954)
Degree Days  
Heating Degree Days 35 28  
Month to date heating degree days 97 85  
Since 1 July heating degree days 6477 6808  
Cooling Degree Days 0 0  
Month to date cooling degree days 0 0  
Year to date cooling degree days 0 0  
Moisture  
Dew Point 16 °F    
Average Humidity 59    
Maximum Humidity 81    
Minimum Humidity 37    
Precipitation  
Precipitation T in 0.12 in 1.93 in (1959)
Month to date precipitation 0.39 0.36  
Year to date precipitation 5.35 9.15  
Snow  
Snow T in 0.30 in 10.00 in (1975)
Month to date snowfall T 0.8  
Since 1 July snowfall 73.2 63.2  
Snow Depth 0.00 in    
Sea Level Pressure  
Sea Level Pressure 29.80 in    
Wind  
Wind Speed 10 mph (WNW)    
Max Wind Speed 22 mph    
Max Gust Speed 36 mph    
Visibility 8 miles    
Events Snow    
T = Trace of Precipitation, MM = Missing Value Source: NWS Daily Summary

Daily Weather History Graph

Daily Weather History Graph

Search for Another Location

Airport:

Trip Planner

Search our weather history database for the weather conditions in past years. The results will help you decide how hot, cold, wet, or windy it might be!

Date:

Astronomy

Apr. 03, 2013 Rise Set
Actual Time 6:12 AM EDT 7:05 PM EDT
Civil Twilight 5:42 AM EDT 7:35 PM EDT
Nautical Twilight 5:06 AM EDT 8:10 PM EDT
Astronomical Twilight 4:30 AM EDT 8:48 PM EDT
Moon 2:06 AM EDT (4/3) 11:58 AM EDT (4/3)
Length of Visible Light 13h 53m
Length of Day
12h 53m
Last Quarter, 45% of the Moon is Illuminated
Apr 3
Last Quarter
Apr 10
New
Apr 18
First Quarter
Apr 25
Full
May 2
Last Quarter

Hourly Weather History & Observations

Time (EDT) Temp. Windchill Dew Point Humidity Pressure Visibility Wind Dir Wind Speed Gust Speed Precip Events Conditions
12:20 AM 26.6 °F 14.7 °F 19.4 °F 74% 29.74 in 1.5 mi West 15.0 mph 27.6 mph 0.00 in Snow Light Snow
12:25 AM 24.8 °F 14.6 °F 21.2 °F 86% 29.74 in 0.8 mi West 10.4 mph 21.9 mph 0.00 in Snow Light Snow
12:31 AM 24.8 °F 14.6 °F 21.2 °F 86% 29.74 in 3.0 mi West 10.4 mph 21.9 mph 0.00 in Snow Light Snow
12:53 AM 25.0 °F 17.1 °F 19.9 °F 81% 29.75 in 10.0 mi West 6.9 mph - 0.00 in   Partly Cloudy
1:53 AM 26.1 °F 20.5 °F 16.0 °F 66% 29.75 in 10.0 mi West 4.6 mph - N/A   Overcast
2:53 AM 25.0 °F 15.5 °F 18.0 °F 75% 29.75 in 10.0 mi NNW 9.2 mph - N/A   Mostly Cloudy
3:53 AM 26.1 °F 17.6 °F 10.9 °F 53% 29.75 in 10.0 mi West 8.1 mph 18.4 mph N/A   Mostly Cloudy
4:53 AM 23.0 °F 13.9 °F 17.1 °F 78% 29.76 in 10.0 mi NW 8.1 mph - 0.00 in Snow Light Snow
5:53 AM 23.0 °F 17.0 °F 16.0 °F 74% 29.77 in 9.0 mi WSW 4.6 mph - 0.00 in Snow Light Snow
6:25 AM 23.0 °F 17.0 °F 17.6 °F 80% 29.77 in 2.5 mi NW 4.6 mph - 0.00 in Snow Light Snow
6:34 AM 23.0 °F 18.4 °F 17.6 °F 80% 29.77 in 5.0 mi NW 3.5 mph - 0.00 in Snow Light Snow
6:53 AM 23.0 °F 17.0 °F 19.0 °F 85% 29.79 in 6.0 mi NW 4.6 mph - 0.00 in Snow Light Snow
7:53 AM 25.0 °F 19.3 °F 18.0 °F 75% 29.80 in 9.0 mi NW 4.6 mph - 0.00 in   Mostly Cloudy
8:53 AM 27.0 °F 23.0 °F 16.0 °F 63% 29.78 in 10.0 mi Variable 3.5 mph - 0.00 in   Mostly Cloudy
9:53 AM 30.0 °F 19.5 °F 12.0 °F 47% 29.78 in 10.0 mi West 13.8 mph 23.0 mph N/A   Mostly Cloudy
10:53 AM 30.9 °F 21.7 °F 10.9 °F 43% 29.78 in 10.0 mi West 11.5 mph 23.0 mph N/A   Mostly Cloudy
11:53 AM 32.0 °F 23.0 °F 10.9 °F 42% 29.77 in 10.0 mi West 11.5 mph 28.8 mph N/A   Mostly Cloudy
12:53 PM 36.0 °F 27.5 °F 12.9 °F 39% 29.77 in 10.0 mi WNW 12.7 mph 23.0 mph N/A   Mostly Cloudy
1:53 PM 37.0 °F 28.9 °F 14.0 °F 39% 29.76 in 10.0 mi West 12.7 mph 23.0 mph N/A   Mostly Cloudy
2:53 PM 37.9 °F 30.5 °F 14.0 °F 38% 29.77 in 10.0 mi West 11.5 mph 29.9 mph N/A   Mostly Cloudy
3:53 PM 37.0 °F 29.8 °F 14.0 °F 39% 29.78 in 10.0 mi WNW 10.4 mph 26.5 mph N/A   Mostly Cloudy
4:53 PM 35.1 °F 26.9 °F 14.0 °F 42% 29.80 in 10.0 mi WNW 11.5 mph 21.9 mph N/A   Mostly Cloudy
5:53 PM 34.0 °F 25.0 °F 14.0 °F 44% 29.83 in 10.0 mi WNW 12.7 mph 29.9 mph N/A   Mostly Cloudy
6:53 PM 33.1 °F 23.9 °F 14.0 °F 46% 29.86 in 10.0 mi NW 12.7 mph 21.9 mph N/A   Scattered Clouds
7:53 PM 32.0 °F 24.8 °F 14.0 °F 48% 29.88 in 10.0 mi West 8.1 mph 18.4 mph N/A   Partly Cloudy
8:53 PM 30.9 °F 21.2 °F 15.1 °F 52% 29.91 in 10.0 mi West 12.7 mph 19.6 mph N/A   Clear
9:53 PM 30.9 °F 22.8 °F 15.1 °F 52% 29.93 in 10.0 mi West 9.2 mph 17.3 mph N/A   Clear
10:53 PM 30.9 °F 20.7 °F 16.0 °F 54% 29.95 in 10.0 mi WNW 13.8 mph 20.7 mph N/A   Partly Cloudy
11:53 PM 30.0 °F 21.7 °F 15.1 °F 54% 29.95 in 10.0 mi WNW 9.2 mph 21.9 mph N/A   Partly Cloudy